Year,Month,Day,Hour,Minute,Value (Times are PST for temperature in C)
2015,11,25,00,00,1.30
2015,11,25,00,01,1.30
2015,11,25,00,02,1.30
2015,11,25,00,03,1.20
2015,11,25,00,04,1.20
2015,11,25,00,05,1.20
2015,11,25,00,06,1.20
2015,11,25,00,07,1.10
2015,11,25,00,08,1.10
2015,11,25,00,09,1.00
2015,11,25,00,10,0.90
2015,11,25,00,11,0.90
2015,11,25,00,12,0.90
2015,11,25,00,13,1.00
2015,11,25,00,14,1.00
2015,11,25,00,15,1.10
2015,11,25,00,16,1.10
2015,11,25,00,17,1.10
2015,11,25,00,18,1.20
2015,11,25,00,19,1.20
2015,11,25,00,20,1.20
2015,11,25,00,21,1.20
2015,11,25,00,22,1.20
2015,11,25,00,23,1.20
2015,11,25,00,24,1.20
2015,11,25,00,25,1.20
2015,11,25,00,26,1.20
2015,11,25,00,27,1.20
2015,11,25,00,28,1.20
2015,11,25,00,29,1.20
2015,11,25,00,30,1.20
2015,11,25,00,31,1.20
2015,11,25,00,32,1.20
2015,11,25,00,33,1.20
2015,11,25,00,34,1.20
2015,11,25,00,35,1.20
2015,11,25,00,36,1.20
2015,11,25,00,37,1.20
2015,11,25,00,38,1.30
2015,11,25,00,39,1.30
2015,11,25,00,40,1.30
2015,11,25,00,41,1.40
2015,11,25,00,42,1.40
2015,11,25,00,43,1.50
2015,11,25,00,44,1.50
2015,11,25,00,45,1.50
2015,11,25,00,46,1.50
2015,11,25,00,47,1.50
2015,11,25,00,48,1.40
2015,11,25,00,49,1.40
2015,11,25,00,50,1.40
2015,11,25,00,51,1.30
2015,11,25,00,52,1.30
2015,11,25,00,53,1.30
2015,11,25,00,54,1.20
2015,11,25,00,55,1.20
2015,11,25,00,56,1.20
2015,11,25,00,57,1.20
2015,11,25,00,58,1.20
2015,11,25,00,59,1.20
2015,11,25,01,00,1.20
2015,11,25,01,01,1.20
2015,11,25,01,02,1.20
2015,11,25,01,03,1.20
2015,11,25,01,04,1.20
2015,11,25,01,05,1.20
2015,11,25,01,06,1.20
2015,11,25,01,07,1.20
2015,11,25,01,08,1.20
2015,11,25,01,09,1.10
2015,11,25,01,10,1.10
2015,11,25,01,11,1.10
2015,11,25,01,12,1.10
2015,11,25,01,13,1.00
2015,11,25,01,14,1.00
2015,11,25,01,15,0.90
2015,11,25,01,16,0.90
2015,11,25,01,17,0.90
2015,11,25,01,18,0.90
2015,11,25,01,19,0.80
2015,11,25,01,20,0.80
2015,11,25,01,21,0.80
2015,11,25,01,22,0.80
2015,11,25,01,23,0.80
2015,11,25,01,24,0.70
2015,11,25,01,25,0.70
2015,11,25,01,26,0.70
2015,11,25,01,27,0.60
2015,11,25,01,28,0.60
2015,11,25,01,29,0.50
2015,11,25,01,30,0.50
2015,11,25,01,31,0.50
2015,11,25,01,32,0.40
2015,11,25,01,33,0.40
2015,11,25,01,34,0.40
2015,11,25,01,35,0.40
2015,11,25,01,36,0.30
2015,11,25,01,37,0.30
2015,11,25,01,38,0.30
2015,11,25,01,39,0.20
2015,11,25,01,40,0.20
2015,11,25,01,41,0.20
2015,11,25,01,42,0.10
2015,11,25,01,43,0.10
2015,11,25,01,44,0.10
2015,11,25,01,45,0.10
2015,11,25,01,46,0.10
2015,11,25,01,47,0.10
2015,11,25,01,48,0.10
2015,11,25,01,49,0.20
2015,11,25,01,50,0.20
2015,11,25,01,51,0.20
2015,11,25,01,52,0.20
2015,11,25,01,53,0.20
2015,11,25,01,54,0.20
2015,11,25,01,55,0.20
2015,11,25,01,56,0.20
2015,11,25,01,57,0.10
2015,11,25,01,58,0.10
2015,11,25,01,59,0.10
2015,11,25,02,00,0.10
2015,11,25,02,01,0.10
2015,11,25,02,02,0.10
2015,11,25,02,03,0.10
2015,11,25,02,04,0.10
2015,11,25,02,05,0.10
2015,11,25,02,06,0.10
2015,11,25,02,07,0.10
2015,11,25,02,08,0.10
2015,11,25,02,09,0.10
2015,11,25,02,10,0.10
2015,11,25,02,11,0.00
2015,11,25,02,12,0.00
2015,11,25,02,13,-0.10
2015,11,25,02,14,-0.10
2015,11,25,02,15,-0.10
2015,11,25,02,16,-0.10
2015,11,25,02,17,-0.10
2015,11,25,02,18,-0.10
2015,11,25,02,19,-0.10
2015,11,25,02,20,-0.10
2015,11,25,02,21,-0.10
2015,11,25,02,22,-0.10
2015,11,25,02,23,-0.10
2015,11,25,02,24,-0.10
2015,11,25,02,25,-0.10
2015,11,25,02,26,-0.10
2015,11,25,02,27,0.00
2015,11,25,02,28,0.00
2015,11,25,02,29,0.00
2015,11,25,02,30,0.10
2015,11,25,02,31,0.10
2015,11,25,02,32,0.10
2015,11,25,02,33,0.10
2015,11,25,02,34,0.10
2015,11,25,02,35,0.10
2015,11,25,02,36,0.10
2015,11,25,02,37,0.10
2015,11,25,02,38,0.10
2015,11,25,02,39,0.10
2015,11,25,02,40,0.10
2015,11,25,02,41,0.10
2015,11,25,02,42,0.10
2015,11,25,02,43,0.10
2015,11,25,02,44,0.10
2015,11,25,02,45,0.10
2015,11,25,02,46,0.10
2015,11,25,02,47,0.00
2015,11,25,02,48,0.00
2015,11,25,02,49,0.00
2015,11,25,02,50,-0.10
2015,11,25,02,51,-0.10
2015,11,25,02,52,-0.10
2015,11,25,02,53,-0.20
2015,11,25,02,54,-0.20
2015,11,25,02,55,-0.20
2015,11,25,02,56,-0.20
2015,11,25,02,57,-0.20
2015,11,25,02,58,-0.20
2015,11,25,02,59,-0.20
2015,11,25,03,00,-0.20
2015,11,25,03,01,-0.20
2015,11,25,03,02,-0.20
2015,11,25,03,03,-0.20
2015,11,25,03,04,-0.20
2015,11,25,03,05,-0.20
2015,11,25,03,06,-0.20
2015,11,25,03,07,-0.20
2015,11,25,03,08,-0.20
2015,11,25,03,09,-0.10
2015,11,25,03,10,-0.10
2015,11,25,03,11,-0.10
2015,11,25,03,12,0.00
2015,11,25,03,13,0.00
2015,11,25,03,14,0.10
2015,11,25,03,15,0.10
2015,11,25,03,16,0.20
2015,11,25,03,17,0.30
2015,11,25,03,18,0.30
2015,11,25,03,19,0.30
2015,11,25,03,20,0.30
2015,11,25,03,21,0.30
2015,11,25,03,22,0.40
2015,11,25,03,23,0.40
2015,11,25,03,24,0.40
2015,11,25,03,25,0.40
2015,11,25,03,26,0.40
2015,11,25,03,27,0.40
2015,11,25,03,28,0.40
2015,11,25,03,29,0.40
2015,11,25,03,30,0.40
2015,11,25,03,31,0.40
2015,11,25,03,32,0.40
2015,11,25,03,33,0.30
2015,11,25,03,34,0.30
2015,11,25,03,35,0.30
2015,11,25,03,36,0.30
2015,11,25,03,37,0.30
2015,11,25,03,38,0.30
2015,11,25,03,39,0.20
2015,11,25,03,40,0.20
2015,11,25,03,41,0.20
2015,11,25,03,42,0.20
2015,11,25,03,43,0.20
2015,11,25,03,44,0.20
2015,11,25,03,45,0.20
2015,11,25,03,46,0.20
2015,11,25,03,47,0.20
2015,11,25,03,48,0.10
2015,11,25,03,49,0.10
2015,11,25,03,50,0.10
2015,11,25,03,51,0.00
2015,11,25,03,52,0.00
2015,11,25,03,53,-0.10
2015,11,25,03,54,-0.10
2015,11,25,03,55,-0.20
2015,11,25,03,56,-0.20
2015,11,25,03,57,-0.30
2015,11,25,03,58,-0.30
2015,11,25,03,59,-0.30
2015,11,25,04,00,-0.30
2015,11,25,04,01,-0.30
2015,11,25,04,02,-0.30
2015,11,25,04,03,-0.40
2015,11,25,04,04,-0.40
2015,11,25,04,05,-0.40
2015,11,25,04,06,-0.40
2015,11,25,04,07,-0.40
2015,11,25,04,08,-0.50
2015,11,25,04,09,-0.50
2015,11,25,04,10,-0.50
2015,11,25,04,11,-0.60
2015,11,25,04,12,-0.60
2015,11,25,04,13,-0.60
2015,11,25,04,14,-0.70
2015,11,25,04,15,-0.70
2015,11,25,04,16,-0.70
2015,11,25,04,17,-0.70
2015,11,25,04,18,-0.80
2015,11,25,04,19,-0.80
2015,11,25,04,20,-0.80
2015,11,25,04,21,-0.80
2015,11,25,04,22,-0.90
2015,11,25,04,23,-0.90
2015,11,25,04,24,-0.90
2015,11,25,04,25,-0.90
2015,11,25,04,26,-0.90
2015,11,25,04,27,-0.90
2015,11,25,04,28,-0.90
2015,11,25,04,29,-0.80
2015,11,25,04,30,-0.80
2015,11,25,04,31,-0.80
2015,11,25,04,32,-0.80
2015,11,25,04,33,-0.80
2015,11,25,04,34,-0.80
2015,11,25,04,35,-0.80
2015,11,25,04,36,-0.80
2015,11,25,04,37,-0.80
2015,11,25,04,38,-0.80
2015,11,25,04,39,-0.80
2015,11,25,04,40,-0.80
2015,11,25,04,41,-0.80
2015,11,25,04,42,-0.70
2015,11,25,04,43,-0.70
2015,11,25,04,44,-0.70
2015,11,25,04,45,-0.70
2015,11,25,04,46,-0.70
2015,11,25,04,47,-0.70
2015,11,25,04,48,-0.70
2015,11,25,04,49,-0.70
2015,11,25,04,50,-0.70
2015,11,25,04,51,-0.70
2015,11,25,04,52,-0.70
2015,11,25,04,53,-0.70
2015,11,25,04,54,-0.70
2015,11,25,04,55,-0.70
2015,11,25,04,56,-0.70
2015,11,25,04,57,-0.70
2015,11,25,04,58,-0.70
2015,11,25,04,59,-0.70
2015,11,25,05,00,-0.70
2015,11,25,05,01,-0.70
2015,11,25,05,02,-0.70
2015,11,25,05,03,-0.70
2015,11,25,05,04,-0.70
2015,11,25,05,05,-0.70
2015,11,25,05,06,-0.70
2015,11,25,05,07,-0.70
2015,11,25,05,08,-0.70
2015,11,25,05,09,-0.70
2015,11,25,05,10,-0.70
2015,11,25,05,11,-0.70
2015,11,25,05,12,-0.70
2015,11,25,05,13,-0.70
2015,11,25,05,14,-0.80
2015,11,25,05,15,-0.80
2015,11,25,05,16,-0.80
2015,11,25,05,17,-0.90
2015,11,25,05,18,-0.90
2015,11,25,05,19,-0.90
2015,11,25,05,20,-1.00
2015,11,25,05,21,-1.00
2015,11,25,05,22,-1.00
2015,11,25,05,23,-1.00
2015,11,25,05,24,-1.00
2015,11,25,05,25,-1.00
2015,11,25,05,26,-1.00
2015,11,25,05,27,-0.90
2015,11,25,05,28,-0.90
2015,11,25,05,29,-0.90
2015,11,25,05,30,-0.80
2015,11,25,05,31,-0.80
2015,11,25,05,32,-0.80
2015,11,25,05,33,-0.80
2015,11,25,05,34,-0.80
2015,11,25,05,35,-0.80
2015,11,25,05,36,-0.80
2015,11,25,05,37,-0.80
2015,11,25,05,38,-0.80
2015,11,25,05,39,-0.80
2015,11,25,05,40,-0.80
2015,11,25,05,41,-0.90
2015,11,25,05,42,-0.90
2015,11,25,05,43,-0.90
2015,11,25,05,44,-0.90
2015,11,25,05,45,-1.00
2015,11,25,05,46,-1.00
2015,11,25,05,47,-1.10
2015,11,25,05,48,-1.10
2015,11,25,05,49,-1.10
2015,11,25,05,50,-1.10
2015,11,25,05,51,-1.00
2015,11,25,05,52,-1.00
2015,11,25,05,53,-1.10
2015,11,25,05,54,-1.10
2015,11,25,05,55,-1.10
2015,11,25,05,56,-1.00
2015,11,25,05,57,-1.10
2015,11,25,05,58,-1.00
2015,11,25,05,59,-1.00
2015,11,25,06,00,-1.00
2015,11,25,06,01,-1.00
2015,11,25,06,02,-0.90
2015,11,25,06,03,-0.90
2015,11,25,06,04,-0.90
2015,11,25,06,05,-0.90
2015,11,25,06,06,-0.90
2015,11,25,06,07,-0.90
2015,11,25,06,08,-0.90
2015,11,25,06,09,-0.90
2015,11,25,06,10,-0.90
2015,11,25,06,11,-0.90
2015,11,25,06,12,-0.90
2015,11,25,06,13,-0.90
2015,11,25,06,14,-0.90
2015,11,25,06,15,-0.90
2015,11,25,06,16,-0.90
2015,11,25,06,17,-0.90
2015,11,25,06,18,-0.90
2015,11,25,06,19,-0.90
2015,11,25,06,20,-0.90
2015,11,25,06,21,-0.80
2015,11,25,06,22,-0.80
2015,11,25,06,23,-0.80
2015,11,25,06,24,-0.80
2015,11,25,06,25,-0.80
2015,11,25,06,26,-0.80
2015,11,25,06,27,-0.80
2015,11,25,06,28,-0.70
2015,11,25,06,29,-0.70
2015,11,25,06,30,-0.70
2015,11,25,06,31,-0.70
2015,11,25,06,32,-0.70
2015,11,25,06,33,-0.70
2015,11,25,06,34,-0.70
2015,11,25,06,35,-0.70
2015,11,25,06,36,-0.80
2015,11,25,06,37,-0.80
2015,11,25,06,38,-0.80
2015,11,25,06,39,-0.80
2015,11,25,06,40,-0.80
2015,11,25,06,41,-0.80
2015,11,25,06,42,-0.80
2015,11,25,06,43,-0.80
2015,11,25,06,44,-0.80
2015,11,25,06,45,-0.80
2015,11,25,06,46,-0.80
2015,11,25,06,47,-0.80
2015,11,25,06,48,-0.80
2015,11,25,06,49,-0.80
2015,11,25,06,50,-0.90
2015,11,25,06,51,-0.90
2015,11,25,06,52,-0.90
2015,11,25,06,53,-0.90
2015,11,25,06,54,-0.80
2015,11,25,06,55,-0.80
2015,11,25,06,56,-0.80
2015,11,25,06,57,-0.80
2015,11,25,06,58,-0.80
2015,11,25,06,59,-0.80
2015,11,25,07,00,-0.80
2015,11,25,07,01,-0.80
2015,11,25,07,02,-0.80
2015,11,25,07,03,-0.80
2015,11,25,07,04,-0.80
2015,11,25,07,05,-0.80
2015,11,25,07,06,-0.80
2015,11,25,07,07,-0.80
2015,11,25,07,08,-0.90
2015,11,25,07,09,-0.90
2015,11,25,07,10,-0.90
2015,11,25,07,11,-0.90
2015,11,25,07,12,-1.00
2015,11,25,07,13,-1.00
2015,11,25,07,14,-1.00
2015,11,25,07,15,-1.10
2015,11,25,07,16,-1.10
2015,11,25,07,17,-1.10
2015,11,25,07,18,-1.10
2015,11,25,07,19,-1.10
2015,11,25,07,20,-1.20
2015,11,25,07,21,-1.20
2015,11,25,07,22,-1.20
2015,11,25,07,23,-1.20
2015,11,25,07,24,-1.20
2015,11,25,07,25,-1.30
2015,11,25,07,26,-1.30
2015,11,25,07,27,-1.30
2015,11,25,07,28,-1.30
2015,11,25,07,29,-1.30
2015,11,25,07,30,-1.30
2015,11,25,07,31,-1.30
2015,11,25,07,32,-1.30
2015,11,25,07,33,-1.30
2015,11,25,07,34,-1.30
2015,11,25,07,35,-1.40
2015,11,25,07,36,-1.40
2015,11,25,07,37,-1.40
2015,11,25,07,38,-1.40
2015,11,25,07,39,-1.40
2015,11,25,07,40,-1.40
2015,11,25,07,41,-1.40
2015,11,25,07,42,-1.50
2015,11,25,07,43,-1.50
2015,11,25,07,44,-1.50
2015,11,25,07,45,-1.50
2015,11,25,07,46,-1.50
2015,11,25,07,47,-1.50
2015,11,25,07,48,-1.60
2015,11,25,07,49,-1.60
2015,11,25,07,50,-1.60
2015,11,25,07,51,-1.60
2015,11,25,07,52,-1.60
2015,11,25,07,53,-1.60
2015,11,25,07,54,-1.60
2015,11,25,07,55,-1.60
2015,11,25,07,56,-1.60
2015,11,25,07,57,-1.60
2015,11,25,07,58,-1.60
2015,11,25,07,59,-1.60
2015,11,25,08,00,-1.60
2015,11,25,08,01,-1.50
2015,11,25,08,02,-1.50
2015,11,25,08,03,-1.50
2015,11,25,08,04,-1.50
2015,11,25,08,05,-1.50
2015,11,25,08,06,-1.50
2015,11,25,08,07,-1.50
2015,11,25,08,08,-1.50
2015,11,25,08,09,-1.50
2015,11,25,08,10,-1.50
2015,11,25,08,11,-1.50
2015,11,25,08,12,-1.50
2015,11,25,08,13,-1.50
2015,11,25,08,14,-1.50
2015,11,25,08,15,-1.40
2015,11,25,08,16,-1.40
2015,11,25,08,17,-1.40
2015,11,25,08,18,-1.40
2015,11,25,08,19,-1.40
2015,11,25,08,20,-1.40
2015,11,25,08,21,-1.40
2015,11,25,08,22,-1.40
2015,11,25,08,23,-1.40
2015,11,25,08,24,-1.40
2015,11,25,08,25,-1.40
2015,11,25,08,26,-1.40
2015,11,25,08,27,-1.40
2015,11,25,08,28,-1.40
2015,11,25,08,29,-1.40
2015,11,25,08,30,-1.30
2015,11,25,08,31,-1.30
2015,11,25,08,32,-1.30
2015,11,25,08,33,-1.30
2015,11,25,08,34,-1.30
2015,11,25,08,35,-1.30
2015,11,25,08,36,-1.20
2015,11,25,08,37,-1.20
2015,11,25,08,38,-1.20
2015,11,25,08,39,-1.10
2015,11,25,08,40,-1.10
2015,11,25,08,41,-1.00
2015,11,25,08,42,-0.90
2015,11,25,08,43,-0.90
2015,11,25,08,44,-0.80
2015,11,25,08,45,-0.80
2015,11,25,08,46,-0.70
2015,11,25,08,47,-0.70
2015,11,25,08,48,-0.60
2015,11,25,08,49,-0.60
2015,11,25,08,50,-0.50
2015,11,25,08,51,-0.50
2015,11,25,08,52,-0.40
2015,11,25,08,53,-0.40
2015,11,25,08,54,-0.30
2015,11,25,08,55,-0.30
2015,11,25,08,56,-0.20
2015,11,25,08,57,-0.10
2015,11,25,08,58,0.00
2015,11,25,08,59,0.00
2015,11,25,09,00,0.10
2015,11,25,09,01,0.20
2015,11,25,09,02,0.30
2015,11,25,09,03,0.40
2015,11,25,09,04,0.50
2015,11,25,09,05,0.60
2015,11,25,09,06,0.80
2015,11,25,09,07,0.80
2015,11,25,09,08,0.90
2015,11,25,09,09,1.00
2015,11,25,09,10,1.10
2015,11,25,09,11,1.10
2015,11,25,09,12,1.10
2015,11,25,09,13,1.20
2015,11,25,09,14,1.20
2015,11,25,09,15,1.30
2015,11,25,09,16,1.30
2015,11,25,09,17,1.40
2015,11,25,09,18,1.40
2015,11,25,09,19,1.50
2015,11,25,09,20,1.50
2015,11,25,09,21,1.60
2015,11,25,09,22,1.60
2015,11,25,09,23,1.70
2015,11,25,09,24,1.70
2015,11,25,09,25,1.70
2015,11,25,09,26,1.80
2015,11,25,09,27,1.80
2015,11,25,09,28,1.80
2015,11,25,09,29,1.90
2015,11,25,09,30,1.90
2015,11,25,09,31,2.00
2015,11,25,09,32,2.00
2015,11,25,09,33,2.10
2015,11,25,09,34,2.10
2015,11,25,09,35,2.10
2015,11,25,09,36,2.20
2015,11,25,09,37,2.20
2015,11,25,09,38,2.20
2015,11,25,09,39,2.20
2015,11,25,09,40,2.20
2015,11,25,09,41,2.20
2015,11,25,09,42,2.30
2015,11,25,09,43,2.30
2015,11,25,09,44,2.30
2015,11,25,09,45,2.40
2015,11,25,09,46,2.40
2015,11,25,09,47,2.50
2015,11,25,09,48,2.50
2015,11,25,09,49,2.60
2015,11,25,09,50,2.60
2015,11,25,09,51,2.70
2015,11,25,09,52,2.80
2015,11,25,09,53,2.80
2015,11,25,09,54,2.80
2015,11,25,09,55,2.90
2015,11,25,09,56,2.90
2015,11,25,09,57,2.90
2015,11,25,09,58,2.80
2015,11,25,09,59,2.80
2015,11,25,10,00,2.80
2015,11,25,10,01,2.80
2015,11,25,10,02,2.80
2015,11,25,10,03,2.80
2015,11,25,10,04,2.80
2015,11,25,10,05,2.90
2015,11,25,10,06,2.90
2015,11,25,10,07,2.90
2015,11,25,10,08,2.90
2015,11,25,10,09,3.00
2015,11,25,10,10,3.00
2015,11,25,10,11,3.10
2015,11,25,10,12,3.20
2015,11,25,10,13,3.20
2015,11,25,10,14,3.30
2015,11,25,10,15,3.40
2015,11,25,10,16,3.50
2015,11,25,10,17,3.60
2015,11,25,10,18,3.60
2015,11,25,10,19,3.70
2015,11,25,10,20,3.70
2015,11,25,10,21,3.70
2015,11,25,10,22,3.70
2015,11,25,10,23,3.80
2015,11,25,10,24,3.80
2015,11,25,10,25,3.80
2015,11,25,10,26,3.90
2015,11,25,10,27,3.90
2015,11,25,10,28,4.00
2015,11,25,10,29,4.00
2015,11,25,10,30,4.10
2015,11,25,10,31,4.10
2015,11,25,10,32,4.10
2015,11,25,10,33,4.20
2015,11,25,10,34,4.20
2015,11,25,10,35,4.30
2015,11,25,10,36,4.30
2015,11,25,10,37,4.40
2015,11,25,10,38,4.50
2015,11,25,10,39,4.60
2015,11,25,10,40,4.70
2015,11,25,10,41,4.80
2015,11,25,10,42,4.80
2015,11,25,10,43,4.90
2015,11,25,10,44,5.00
2015,11,25,10,45,5.10
2015,11,25,10,46,5.20
2015,11,25,10,47,5.20
2015,11,25,10,48,5.30
2015,11,25,10,49,5.40
2015,11,25,10,50,5.40
2015,11,25,10,51,5.50
2015,11,25,10,52,5.60
2015,11,25,10,53,5.60
2015,11,25,10,54,5.60
2015,11,25,10,55,5.60
2015,11,25,10,56,5.70
2015,11,25,10,57,5.70
2015,11,25,10,58,5.70
2015,11,25,10,59,5.70
2015,11,25,11,00,5.70
2015,11,25,11,01,5.60
2015,11,25,11,02,5.60
2015,11,25,11,03,5.60
2015,11,25,11,04,5.50
2015,11,25,11,05,5.50
2015,11,25,11,06,5.50
2015,11,25,11,07,5.50
2015,11,25,11,08,5.50
2015,11,25,11,09,5.50
2015,11,25,11,10,5.50
2015,11,25,11,11,5.50
2015,11,25,11,12,5.50
2015,11,25,11,13,5.50
2015,11,25,11,14,5.60
2015,11,25,11,15,5.60
2015,11,25,11,16,5.60
2015,11,25,11,17,5.60
2015,11,25,11,18,5.60
2015,11,25,11,19,5.60
2015,11,25,11,20,5.60
2015,11,25,11,21,5.70
2015,11,25,11,22,5.70
2015,11,25,11,23,5.80
2015,11,25,11,24,5.80
2015,11,25,11,25,5.90
2015,11,25,11,26,5.90
2015,11,25,11,27,6.00
2015,11,25,11,28,6.10
2015,11,25,11,29,6.10
2015,11,25,11,30,6.20
2015,11,25,11,31,6.20
2015,11,25,11,32,6.20
2015,11,25,11,33,6.20
2015,11,25,11,34,6.20
2015,11,25,11,35,6.10
2015,11,25,11,36,6.20
2015,11,25,11,37,6.10
2015,11,25,11,38,6.10
2015,11,25,11,39,6.20
2015,11,25,11,40,6.20
2015,11,25,11,41,6.20
2015,11,25,11,42,6.20
2015,11,25,11,43,6.20
2015,11,25,11,44,6.20
2015,11,25,11,45,6.20
2015,11,25,11,46,6.20
2015,11,25,11,47,6.20
2015,11,25,11,48,6.20
2015,11,25,11,49,6.20
2015,11,25,11,50,6.20
2015,11,25,11,51,6.20
2015,11,25,11,52,6.20
2015,11,25,11,53,6.20
2015,11,25,11,54,6.30
2015,11,25,11,55,6.30
2015,11,25,11,56,6.30
2015,11,25,11,57,6.30
2015,11,25,11,58,6.30
2015,11,25,11,59,6.30
2015,11,25,12,00,6.30
2015,11,25,12,01,6.30
2015,11,25,12,02,6.30
2015,11,25,12,03,6.40
2015,11,25,12,04,6.40
2015,11,25,12,05,6.40
2015,11,25,12,06,6.40
2015,11,25,12,07,6.40
2015,11,25,12,08,6.50
2015,11,25,12,09,6.50
2015,11,25,12,10,6.60
2015,11,25,12,11,6.60
2015,11,25,12,12,6.60
2015,11,25,12,13,6.70
2015,11,25,12,14,6.70
2015,11,25,12,15,6.70
2015,11,25,12,16,6.70
2015,11,25,12,17,6.60
2015,11,25,12,18,6.50
2015,11,25,12,19,6.30
2015,11,25,12,20,6.30
2015,11,25,12,21,6.20
2015,11,25,12,22,6.20
2015,11,25,12,23,6.20
2015,11,25,12,24,6.20
2015,11,25,12,25,6.20
2015,11,25,12,26,6.20
2015,11,25,12,27,6.20
2015,11,25,12,28,6.20
2015,11,25,12,29,6.20
2015,11,25,12,30,6.20
2015,11,25,12,31,6.20
2015,11,25,12,32,6.20
2015,11,25,12,33,6.20
2015,11,25,12,34,6.30
2015,11,25,12,35,6.30
2015,11,25,12,36,6.40
2015,11,25,12,37,6.40
2015,11,25,12,38,6.40
2015,11,25,12,39,6.40
2015,11,25,12,40,6.40
2015,11,25,12,41,6.40
2015,11,25,12,42,6.40
2015,11,25,12,43,6.40
2015,11,25,12,44,6.40
2015,11,25,12,45,6.40
2015,11,25,12,46,6.50
2015,11,25,12,47,6.50
2015,11,25,12,48,6.40
2015,11,25,12,49,6.40
2015,11,25,12,50,6.40
2015,11,25,12,51,6.40
2015,11,25,12,52,6.30
2015,11,25,12,53,6.30
2015,11,25,12,54,6.30
2015,11,25,12,55,6.40
2015,11,25,12,56,6.40
2015,11,25,12,57,6.40
2015,11,25,12,58,6.40
2015,11,25,12,59,6.40
2015,11,25,13,00,6.40
2015,11,25,13,01,6.40
2015,11,25,13,02,6.40
2015,11,25,13,03,6.40
2015,11,25,13,04,6.40
2015,11,25,13,05,6.40
2015,11,25,13,06,6.40
2015,11,25,13,07,6.40
2015,11,25,13,08,6.40
2015,11,25,13,09,6.40
2015,11,25,13,10,6.40
2015,11,25,13,11,6.50
2015,11,25,13,12,6.50
2015,11,25,13,13,6.50
2015,11,25,13,14,6.50
2015,11,25,13,15,6.50
2015,11,25,13,16,6.50
2015,11,25,13,17,6.50
2015,11,25,13,18,6.50
2015,11,25,13,19,6.50
2015,11,25,13,20,6.60
2015,11,25,13,21,6.60
2015,11,25,13,22,6.70
2015,11,25,13,23,6.70
2015,11,25,13,24,6.70
2015,11,25,13,25,6.80
2015,11,25,13,26,6.80
2015,11,25,13,27,6.90
2015,11,25,13,28,7.00
2015,11,25,13,29,7.10
2015,11,25,13,30,7.10
2015,11,25,13,31,7.20
2015,11,25,13,32,7.30
2015,11,25,13,33,7.30
2015,11,25,13,34,7.30
2015,11,25,13,35,7.40
2015,11,25,13,36,7.40
2015,11,25,13,37,7.40
2015,11,25,13,38,7.50
2015,11,25,13,39,7.50
2015,11,25,13,40,7.60
2015,11,25,13,41,7.60
2015,11,25,13,42,7.60
2015,11,25,13,43,7.60
2015,11,25,13,44,7.70
2015,11,25,13,45,7.70
2015,11,25,13,46,7.70
2015,11,25,13,47,7.80
2015,11,25,13,48,7.80
2015,11,25,13,49,7.80
2015,11,25,13,50,7.80
2015,11,25,13,51,7.70
2015,11,25,13,52,7.70
2015,11,25,13,53,7.70
2015,11,25,13,54,7.60
2015,11,25,13,55,7.60
2015,11,25,13,56,7.50
2015,11,25,13,57,7.50
2015,11,25,13,58,7.50
2015,11,25,13,59,7.50
2015,11,25,14,00,7.50
2015,11,25,14,01,7.50
2015,11,25,14,02,7.50
2015,11,25,14,03,7.50
2015,11,25,14,04,7.50
2015,11,25,14,05,7.40
2015,11,25,14,06,7.40
2015,11,25,14,07,7.40
2015,11,25,14,08,7.40
2015,11,25,14,09,7.40
2015,11,25,14,10,7.40
2015,11,25,14,11,7.40
2015,11,25,14,12,7.40
2015,11,25,14,13,7.40
2015,11,25,14,14,7.40
2015,11,25,14,15,7.50
2015,11,25,14,16,7.50
2015,11,25,14,17,7.50
2015,11,25,14,18,7.50
2015,11,25,14,19,7.50
2015,11,25,14,20,7.60
2015,11,25,14,21,7.60
2015,11,25,14,22,7.60
2015,11,25,14,23,7.60
2015,11,25,14,24,7.70
2015,11,25,14,25,7.70
2015,11,25,14,26,7.60
2015,11,25,14,27,7.60
2015,11,25,14,28,7.60
2015,11,25,14,29,7.60
2015,11,25,14,30,7.50
2015,11,25,14,31,7.50
2015,11,25,14,32,7.50
2015,11,25,14,33,7.40
2015,11,25,14,34,7.40
2015,11,25,14,35,7.40
2015,11,25,14,36,7.30
2015,11,25,14,37,7.30
2015,11,25,14,38,7.30
2015,11,25,14,39,7.30
2015,11,25,14,40,7.30
2015,11,25,14,41,7.40
2015,11,25,14,42,7.40
2015,11,25,14,43,7.40
2015,11,25,14,44,7.40
2015,11,25,14,45,7.40
2015,11,25,14,46,7.40
2015,11,25,14,47,7.40
2015,11,25,14,48,7.40
2015,11,25,14,49,7.40
2015,11,25,14,50,7.40
2015,11,25,14,51,7.40
2015,11,25,14,52,7.50
2015,11,25,14,53,7.50
2015,11,25,14,54,7.50
2015,11,25,14,55,7.60
2015,11,25,14,56,7.60
2015,11,25,14,57,7.60
2015,11,25,14,58,7.60
2015,11,25,14,59,7.60
2015,11,25,15,00,7.70
2015,11,25,15,01,7.70
2015,11,25,15,02,7.70
2015,11,25,15,03,7.80
2015,11,25,15,04,7.80
2015,11,25,15,05,7.80
2015,11,25,15,06,7.80
2015,11,25,15,07,7.80
2015,11,25,15,08,7.70
2015,11,25,15,09,7.70
2015,11,25,15,10,7.70
2015,11,25,15,11,7.60
2015,11,25,15,12,7.50
2015,11,25,15,13,7.50
2015,11,25,15,14,7.40
2015,11,25,15,15,7.40
2015,11,25,15,16,7.40
2015,11,25,15,17,7.40
2015,11,25,15,18,7.40
2015,11,25,15,19,7.30
2015,11,25,15,20,7.30
2015,11,25,15,21,7.30
2015,11,25,15,22,7.20
2015,11,25,15,23,7.20
2015,11,25,15,24,7.10
2015,11,25,15,25,7.10
2015,11,25,15,26,7.00
2015,11,25,15,27,6.90
2015,11,25,15,28,6.90
2015,11,25,15,29,6.80
2015,11,25,15,30,6.80
2015,11,25,15,31,6.80
2015,11,25,15,32,6.70
2015,11,25,15,33,6.70
2015,11,25,15,34,6.60
2015,11,25,15,35,6.60
2015,11,25,15,36,6.50
2015,11,25,15,37,6.50
2015,11,25,15,38,6.40
2015,11,25,15,39,6.40
2015,11,25,15,40,6.30
2015,11,25,15,41,6.30
2015,11,25,15,42,6.30
2015,11,25,15,43,6.20
2015,11,25,15,44,6.20
2015,11,25,15,45,6.10
2015,11,25,15,46,6.00
2015,11,25,15,47,6.00
2015,11,25,15,48,5.90
2015,11,25,15,49,5.80
2015,11,25,15,50,5.80
2015,11,25,15,51,5.70
2015,11,25,15,52,5.60
2015,11,25,15,53,5.60
2015,11,25,15,54,5.50
2015,11,25,15,55,5.50
2015,11,25,15,56,5.40
2015,11,25,15,57,5.40
2015,11,25,15,58,5.30
2015,11,25,15,59,5.20
2015,11,25,16,00,5.20
2015,11,25,16,01,5.10
2015,11,25,16,02,5.00
2015,11,25,16,03,5.00
2015,11,25,16,04,4.90
2015,11,25,16,05,4.80
2015,11,25,16,06,4.70
2015,11,25,16,07,4.70
2015,11,25,16,08,4.60
2015,11,25,16,09,4.50
2015,11,25,16,10,4.50
2015,11,25,16,11,4.40
2015,11,25,16,12,4.30
2015,11,25,16,13,4.30
2015,11,25,16,14,4.20
2015,11,25,16,15,4.20
2015,11,25,16,16,4.10
2015,11,25,16,17,4.00
2015,11,25,16,18,4.00
2015,11,25,16,19,3.90
2015,11,25,16,20,3.80
2015,11,25,16,21,3.80
2015,11,25,16,22,3.70
2015,11,25,16,23,3.70
2015,11,25,16,24,3.60
2015,11,25,16,25,3.50
2015,11,25,16,26,3.50
2015,11,25,16,27,3.40
2015,11,25,16,28,3.40
2015,11,25,16,29,3.30
2015,11,25,16,30,3.30
2015,11,25,16,31,3.20
2015,11,25,16,32,3.20
2015,11,25,16,33,3.10
2015,11,25,16,34,3.10
2015,11,25,16,35,3.00
2015,11,25,16,36,3.00
2015,11,25,16,37,2.90
2015,11,25,16,38,2.90
2015,11,25,16,39,2.80
2015,11,25,16,40,2.80
2015,11,25,16,41,2.80
2015,11,25,16,42,2.80
2015,11,25,16,43,2.70
2015,11,25,16,44,2.70
2015,11,25,16,45,2.60
2015,11,25,16,46,2.60
2015,11,25,16,47,2.50
2015,11,25,16,48,2.50
2015,11,25,16,49,2.40
2015,11,25,16,50,2.40
2015,11,25,16,51,2.30
2015,11,25,16,52,2.30
2015,11,25,16,53,2.30
2015,11,25,16,54,2.30
2015,11,25,16,55,2.20
2015,11,25,16,56,2.20
2015,11,25,16,57,2.10
2015,11,25,16,58,2.10
2015,11,25,16,59,2.10
2015,11,25,17,00,2.00
2015,11,25,17,01,2.00
2015,11,25,17,02,2.00
2015,11,25,17,03,1.90
2015,11,25,17,04,1.90
2015,11,25,17,05,1.90
2015,11,25,17,06,1.80
2015,11,25,17,07,1.80
2015,11,25,17,08,1.80
2015,11,25,17,09,1.70
2015,11,25,17,10,1.70
2015,11,25,17,11,1.60
2015,11,25,17,12,1.60
2015,11,25,17,13,1.60
2015,11,25,17,14,1.50
2015,11,25,17,15,1.50
2015,11,25,17,16,1.40
2015,11,25,17,17,1.40
2015,11,25,17,18,1.40
2015,11,25,17,19,1.40
2015,11,25,17,20,1.40
2015,11,25,17,21,1.30
2015,11,25,17,22,1.30
2015,11,25,17,23,1.30
2015,11,25,17,24,1.30
2015,11,25,17,25,1.20
2015,11,25,17,26,1.20
2015,11,25,17,27,1.20
2015,11,25,17,28,1.20
2015,11,25,17,29,1.10
2015,11,25,17,30,1.10
2015,11,25,17,31,1.10
2015,11,25,17,32,1.00
2015,11,25,17,33,1.00
2015,11,25,17,34,0.90
2015,11,25,17,35,0.90
2015,11,25,17,36,0.90
2015,11,25,17,37,0.90
2015,11,25,17,38,0.90
2015,11,25,17,39,0.80
2015,11,25,17,40,0.80
2015,11,25,17,41,0.80
2015,11,25,17,42,0.80
2015,11,25,17,43,0.80
2015,11,25,17,44,0.80
2015,11,25,17,45,0.80
2015,11,25,17,46,0.70
2015,11,25,17,47,0.70
2015,11,25,17,48,0.70
2015,11,25,17,49,0.70
2015,11,25,17,50,0.70
2015,11,25,17,51,0.70